TimeEST,TemperatureF,Dew PointF,Humidity,Sea Level PressureIn,VisibilityMPH,Wind Direction,Wind SpeedMPH,Gust SpeedMPH,PrecipitationIn,Events,Conditions,WindDirDegrees,DateUTC
12:23 AM,33.1,30.9,92,30.03,0.8,NNE,8.1,-,N/A,,Mist,20,2013-12-23 05:23:00
12:53 AM,33.1,30.9,92,30.03,0.5,North,6.9,-,N/A,Fog,Fog,10,2013-12-23 05:53:00
1:53 AM,33.1,32.0,96,30.03,0.5,NNE,8.1,-,N/A,Fog,Fog,20,2013-12-23 06:53:00
2:53 AM,33.1,32.0,96,30.04,0.5,North,8.1,-,N/A,Fog,Fog,10,2013-12-23 07:53:00
3:53 AM,33.1,32.0,96,30.02,0.8,NNE,5.8,-,N/A,,Mist,30,2013-12-23 08:53:00
4:13 AM,33.1,32.0,96,30.05,1.0,North,5.8,-,N/A,,Mist,360,2013-12-23 09:13:00
4:21 AM,33.1,32.0,96,30.06,1.0,North,6.9,-,N/A,,Overcast,360,2013-12-23 09:21:00
4:53 AM,32.0,30.9,96,30.06,1.0,North,5.8,-,N/A,,Overcast,360,2013-12-23 09:53:00
5:27 AM,32.0,30.0,92,30.07,1.2,NNE,6.9,-,0.00,Rain,Light Freezing Rain,20,2013-12-23 10:27:00
5:38 AM,32.0,30.0,92,30.07,1.2,North,5.8,-,0.00,,Overcast,360,2013-12-23 10:38:00
5:53 AM,32.0,30.0,92,30.05,1.2,NNE,5.8,-,0.00,,Overcast,30,2013-12-23 10:53:00
6:30 AM,32.0,30.9,96,30.06,1.0,North,6.9,-,N/A,,Overcast,10,2013-12-23 11:30:00
6:37 AM,32.0,30.0,92,30.06,0.8,NNW,4.6,-,N/A,,Overcast,340,2013-12-23 11:37:00
6:53 AM,32.0,30.0,92,30.06,0.8,NNW,5.8,-,N/A,,Overcast,340,2013-12-23 11:53:00
7:10 AM,30.9,30.0,96,30.06,0.8,North,5.8,-,N/A,,Mist,360,2013-12-23 12:10:00
7:44 AM,32.0,30.0,92,30.04,0.2,NNW,5.8,-,N/A,Fog,Fog,330,2013-12-23 12:44:00
7:53 AM,32.0,30.0,92,30.04,0.2,NNW,6.9,-,N/A,Fog,Fog,340,2013-12-23 12:53:00
8:24 AM,32.0,30.0,92,30.10,0.2,NW,10.4,-,0.00,Fog-Rain,Light Freezing Rain,310,2013-12-23 13:24:00
8:33 AM,32.0,30.0,92,30.09,0.5,NNW,5.8,-,0.00,Fog-Rain,Light Freezing Rain,330,2013-12-23 13:33:00
8:49 AM,32.0,30.2,93,30.06,1.0,NNE,4.6,-,0.01,Rain,Light Freezing Rain,20,2013-12-23 13:49:00
8:53 AM,32.0,30.9,96,30.07,1.2,Calm,Calm,-,0.01,Rain,Light Freezing Rain,0,2013-12-23 13:53:00
9:18 AM,32.0,30.9,96,30.07,1.8,NW,4.6,-,0.04,Rain,Light Freezing Rain,320,2013-12-23 14:18:00
9:26 AM,32.0,30.9,96,30.08,2.5,NNW,5.8,-,0.05,Rain,Light Freezing Rain,330,2013-12-23 14:26:00
9:33 AM,32.0,30.0,92,30.08,4.0,NNW,8.1,-,0.06,Rain,Light Freezing Rain,330,2013-12-23 14:33:00
9:53 AM,32.0,30.0,92,30.06,5.0,North,5.8,-,0.09,Rain,Light Freezing Rain,350,2013-12-23 14:53:00
10:07 AM,32.0,30.9,96,30.06,3.0,Calm,Calm,-,0.02,Rain,Light Freezing Rain,0,2013-12-23 15:07:00
10:14 AM,32.0,30.9,96,30.06,4.0,Calm,Calm,-,0.03,Rain,Light Freezing Rain,0,2013-12-23 15:14:00
10:53 AM,32.0,30.0,92,30.04,10.0,North,6.9,-,0.03,Rain,Light Freezing Rain,350,2013-12-23 15:53:00
11:26 AM,32.0,30.9,96,30.01,8.0,North,6.9,-,0.02,Rain,Light Freezing Rain,10,2013-12-23 16:26:00
11:53 AM,32.0,30.0,92,30.01,6.0,NNW,6.9,-,0.03,Rain,Light Freezing Rain,340,2013-12-23 16:53:00
12:08 PM,32.0,30.0,92,29.98,7.0,ENE,3.5,-,0.01,Rain,Light Freezing Rain,60,2013-12-23 17:08:00
12:53 PM,32.0,30.9,96,29.99,5.0,North,4.6,-,0.04,Rain,Light Freezing Rain,360,2013-12-23 17:53:00
1:10 PM,32.0,30.9,96,30.01,4.0,NNW,8.1,-,0.02,Rain,Light Freezing Rain,330,2013-12-23 18:10:00
1:30 PM,33.1,30.9,92,29.99,5.0,North,4.6,-,0.04,Rain,Light Freezing Rain,350,2013-12-23 18:30:00
1:43 PM,33.1,32.0,96,29.95,2.0,East,3.5,-,0.05,Rain,Light Rain,90,2013-12-23 18:43:00
1:53 PM,33.1,32.0,96,29.96,1.5,Calm,Calm,-,0.07,Rain,Light Rain,0,2013-12-23 18:53:00
2:25 PM,33.1,32.0,96,29.97,1.5,NNW,6.9,-,0.06,Rain,Light Rain,340,2013-12-23 19:25:00
2:43 PM,34.0,32.0,92,29.98,1.5,Calm,Calm,-,0.07,Rain,Light Rain,0,2013-12-23 19:43:00
2:53 PM,34.0,33.1,96,29.98,1.8,NW,3.5,-,0.08,Rain,Light Rain,320,2013-12-23 19:53:00
3:32 PM,34.0,33.1,96,30.00,1.8,Calm,Calm,-,0.04,Rain,Rain,0,2013-12-23 20:32:00
3:49 PM,33.8,32.0,93,30.00,1.8,Calm,Calm,-,0.06,Rain,Light Rain,0,2013-12-23 20:49:00
3:53 PM,34.0,32.0,92,30.00,2.0,West,3.5,-,0.06,Rain,Light Rain,260,2013-12-23 20:53:00
4:53 PM,34.0,33.1,96,30.00,2.0,SSW,3.5,-,0.05,,Overcast,210,2013-12-23 21:53:00
5:00 PM,34.0,33.1,96,30.00,6.0,Calm,Calm,-,N/A,,Overcast,0,2013-12-23 22:00:00
5:53 PM,35.1,34.0,96,30.00,4.0,Calm,Calm,-,0.03,Rain,Light Rain,0,2013-12-23 22:53:00
6:12 PM,35.1,34.0,96,30.00,5.0,Calm,Calm,-,0.01,Rain,Light Rain,0,2013-12-23 23:12:00
6:23 PM,35.1,33.1,92,29.99,3.0,Calm,Calm,-,0.01,Rain,Light Rain,0,2013-12-23 23:23:00
6:53 PM,34.0,33.1,96,30.03,5.0,WNW,8.1,-,0.02,Rain,Light Rain,300,2013-12-23 23:53:00
7:53 PM,34.0,33.1,96,30.02,6.0,NW,4.6,-,0.00,Rain,Light Rain,320,2013-12-24 00:53:00
8:08 PM,34.0,32.0,92,30.04,6.0,NW,8.1,-,0.00,Rain,Light Rain,320,2013-12-24 01:08:00
8:53 PM,35.1,33.1,92,30.04,4.0,NW,4.6,-,0.04,Rain,Light Rain,320,2013-12-24 01:53:00
9:53 PM,36.0,34.0,93,30.03,8.0,NW,4.6,-,0.01,Rain,Light Rain,310,2013-12-24 02:53:00
10:19 PM,36.0,34.0,93,30.05,9.0,WNW,6.9,-,0.00,,Overcast,300,2013-12-24 03:19:00
10:53 PM,37.0,34.0,89,30.07,10.0,NW,6.9,-,0.00,,Overcast,310,2013-12-24 03:53:00
11:53 PM,37.0,34.0,89,30.06,10.0,NW,10.4,-,N/A,,Overcast,310,2013-12-24 04:53:00